User: anonymous   Login
Location: Caltech
(34.1382°N, 118.1253°W)
Time: 21:09:33
(UTC-08:00)
Language:

Cosmos 1758 Rocket - Orbit

View from above orbital plane
View from above orbital plane
View from above satellite
View from above satellite

Ground track
Ground track

The orbit data is extracted from the following two-line orbital elements,

1 16792U 86046B   14329.57262184  .00000266  00000-0  29814-4 0  6352
2 16792 082.4828 001.6352 0025932 128.5520 346.3897 14.82712608536362
Epoch (UTC): 25 November 2014 13:44:34
Eccentricity: 0.0025932
inclination: 82.4828°
perigee height: 602 km
apogee height: 639 km
right ascension of ascending node: 1.6352°
argument of perigee: 128.5520°
revolutions per day: 14.82712608
mean anomaly at epoch: 346.3897°
orbit number at epoch: 53636

The dashed part of the orbit path shows where the satellite is in the earth's shadow,  

DLR